This demonstration page uses our WeatherBlox Daily Observations layout. Learn more.

Left ArrowRight Arrow

Hourly Observations for August 22, 2019

Temp ( °F °C ) Dew Point ( °F °C ) Humidity (%) Winds ( mph kmh ) Pressure ( in mb ) Visibility ( mi km ) Precip ( " mm )
12:56 am 00:56 Mostly Clear 68 20 64 18 88 88 ENE 6 9 30.05 1018 10 16 0.00 0.00
1:56 am 01:56 Mostly Clear 68 20 61 16 78 78 NE 6 9 30.04 1017 10 16 0.00 0.00
2:56 am 02:56 Clear 66 19 61 16 83 83 ENE 3 6 30.03 1017 10 16 0.00 0.00
3:56 am 03:56 Clear 66 19 61 16 83 83 ENE 3 6 30.03 1017 10 16 0.00 0.00
4:56 am 04:56 Clear 64 18 61 16 88 88 Calm 30.04 1017 10 16 0.00 0.00
5:56 am 05:56 Clear 64 18 61 16 88 88 Calm 30.03 1017 10 16 0.00 0.00
6:56 am 06:56 Mostly Sunny 64 18 61 16 88 88 Calm 30.05 1018 10 16 0.00 0.00
7:56 am 07:56 Mostly Sunny 66 19 61 16 83 83 ENE 3 6 30.07 1018 10 16 0.00 0.00
8:56 am 08:56 Sunny 66 19 61 16 83 83 NE 5 7 30.06 1018 10 16 0.00 0.00
9:56 am 09:56 Mostly Cloudy 70 21 61 16 73 73 ENE 6 9 30.06 1018 10 16 0.00 0.00
10:26 am 10:26 Partly Cloudy 70 21 61 16 73 73 E 8 13 30.06 1018 10 16 0.00 0.00
11:26 am 11:26 Partly Cloudy N/A N/A N/A ENE 6 9 N/A 10 16 0.00 0.00
11:56 am 11:56 Mostly Sunny 73 23 64 18 74 74 NE 8 13 30.05 1018 10 16 0.00 0.00
12:56 pm 12:56 Mostly Sunny 77 25 64 18 65 65 E 8 13 30.03 1017 10 16 0.00 0.00
2:56 pm 14:56 Partly Cloudy 79 26 61 16 54 54 E 9 15 30.01 1016 10 16 0.00 0.00
4:56 pm 16:56 Mostly Cloudy 82 28 61 16 48 48 ENE 7 11 29.99 1016 10 16 0.00 0.00
5:56 pm 17:56 Mostly Cloudy 81 27 61 16 51 51 E 8 13 29.98 1015 10 16 0.00 0.00
6:56 pm 18:56 Mostly Cloudy 79 26 61 16 54 54 E 8 13 29.98 1015 10 16 0.00 0.00
7:56 pm 19:56 Mostly Cloudy 77 25 61 16 57 57 ENE 7 11 29.98 1015 10 16 0.00 0.00
8:56 pm 20:56 Mostly Cloudy 73 23 61 16 65 65 ENE 9 15 29.99 1016 10 16 0.00 0.00
9:56 pm 21:56 Mostly Cloudy 73 23 61 16 65 65 E 8 13 30.04 1017 10 16 0.00 0.00
10:56 pm 22:56 Clear 72 22 59 15 65 65 E 5 7 30.05 1018 10 16 0.00 0.00
11:56 pm 23:56 Mostly Clear N/A N/A N/A E 7 11 N/A N/A 0.00 0.00

Powered by AerisWeather